TimeCDT,TemperatureF,Dew PointF,Humidity,Sea Level PressureIn,VisibilityMPH,Wind Direction,Wind SpeedMPH,Gust SpeedMPH,PrecipitationIn,Events,Conditions,WindDirDegrees,DateUTC
12:55 AM,71.4,68.4,90,30.04,10.0,SSE,8.1,-,N/A,,Mostly Cloudy,160,2012-10-12 05:55:00
1:55 AM,71.1,68.0,90,30.03,10.0,SSE,8.1,-,N/A,,Partly Cloudy,150,2012-10-12 06:55:00
2:55 AM,70.3,67.5,91,30.03,10.0,SSE,6.9,-,N/A,,Scattered Clouds,150,2012-10-12 07:55:00
3:55 AM,70.5,67.6,91,30.02,10.0,South,9.2,-,N/A,,Mostly Cloudy,170,2012-10-12 08:55:00
3:56 AM,69.8,68.0,94,30.02,10.0,South,10.4,-,N/A,,Mostly Cloudy,170,2012-10-12 08:56:00
4:11 AM,71.6,68.0,88,30.02,10.0,South,6.9,-,N/A,,Overcast,170,2012-10-12 09:11:00
4:55 AM,70.5,68.0,92,30.03,10.0,South,6.9,-,N/A,,Overcast,170,2012-10-12 09:55:00
5:04 AM,69.8,68.0,94,30.03,10.0,South,6.9,-,N/A,,Overcast,170,2012-10-12 10:04:00
5:55 AM,70.2,68.2,93,30.04,10.0,South,6.9,-,N/A,,Overcast,180,2012-10-12 10:55:00
6:39 AM,69.8,68.0,94,30.06,10.0,South,3.5,-,N/A,,Overcast,180,2012-10-12 11:39:00
6:47 AM,69.8,68.0,94,30.06,10.0,Calm,Calm,-,N/A,,Overcast,0,2012-10-12 11:47:00
6:55 AM,69.8,68.4,95,30.06,10.0,Calm,Calm,-,N/A,,Overcast,0,2012-10-12 11:55:00
7:16 AM,69.8,68.0,94,30.08,10.0,Calm,Calm,-,N/A,,Overcast,0,2012-10-12 12:16:00
7:18 AM,69.8,68.0,94,30.08,10.0,Calm,Calm,-,N/A,,Overcast,0,2012-10-12 12:18:00
7:20 AM,69.8,68.0,94,30.08,10.0,Calm,Calm,-,N/A,,Overcast,0,2012-10-12 12:20:00
7:42 AM,69.8,68.0,94,30.09,10.0,East,3.5,-,N/A,,Overcast,90,2012-10-12 12:42:00
7:55 AM,69.1,67.8,96,30.09,10.0,East,4.6,-,N/A,,Overcast,90,2012-10-12 12:55:00
8:11 AM,69.8,68.0,94,30.10,10.0,East,5.8,-,N/A,,Overcast,90,2012-10-12 13:11:00
8:19 AM,69.8,68.0,94,30.10,10.0,East,5.8,-,N/A,,Overcast,90,2012-10-12 13:19:00
8:55 AM,70.0,68.5,95,30.11,10.0,SE,5.8,-,N/A,,Overcast,140,2012-10-12 13:55:00
8:56 AM,69.8,68.0,94,30.11,10.0,SE,5.8,-,N/A,,Overcast,140,2012-10-12 13:56:00
9:26 AM,69.8,68.0,94,30.12,10.0,SSE,6.9,-,N/A,,Overcast,150,2012-10-12 14:26:00
9:53 AM,71.6,69.8,94,30.12,10.0,South,9.2,-,N/A,,Overcast,170,2012-10-12 14:53:00
9:55 AM,72.0,69.1,91,30.12,10.0,SSE,9.2,-,N/A,,Overcast,160,2012-10-12 14:55:00
10:11 AM,71.6,69.8,94,30.12,10.0,South,10.4,-,N/A,,Overcast,180,2012-10-12 15:11:00
10:19 AM,71.6,68.0,88,30.12,10.0,South,10.4,-,N/A,,Overcast,180,2012-10-12 15:19:00
10:34 AM,73.4,69.8,88,30.13,10.0,South,8.1,-,N/A,,Mostly Cloudy,190,2012-10-12 15:34:00
10:36 AM,73.4,68.0,83,30.12,10.0,South,9.2,-,N/A,,Mostly Cloudy,180,2012-10-12 15:36:00
10:39 AM,73.4,69.8,88,30.12,10.0,South,9.2,-,N/A,,Overcast,180,2012-10-12 15:39:00
10:55 AM,72.9,68.7,87,30.12,10.0,South,9.2,-,N/A,,Mostly Cloudy,190,2012-10-12 15:55:00
11:55 AM,76.3,69.6,80,30.10,10.0,South,8.1,-,N/A,,Mostly Cloudy,190,2012-10-12 16:55:00
12:11 PM,77.0,69.8,78,30.10,10.0,South,4.6,-,N/A,,Mostly Cloudy,180,2012-10-12 17:11:00
12:46 PM,80.6,69.8,70,30.09,10.0,SSE,9.2,-,N/A,,Mostly Cloudy,160,2012-10-12 17:46:00
12:55 PM,80.6,70.3,71,30.08,10.0,South,8.1,-,N/A,,Mostly Cloudy,170,2012-10-12 17:55:00
1:55 PM,82.2,69.8,66,30.04,10.0,SSE,6.9,-,N/A,,Partly Cloudy,150,2012-10-12 18:55:00
2:55 PM,84.0,69.6,62,30.01,10.0,SSE,11.5,-,N/A,,Mostly Cloudy,160,2012-10-12 19:55:00
3:55 PM,84.9,68.7,58,30.00,10.0,SSE,11.5,-,N/A,,Overcast,160,2012-10-12 20:55:00
4:55 PM,82.8,68.7,62,29.98,10.0,SSE,12.7,-,N/A,,Scattered Clouds,150,2012-10-12 21:55:00
5:55 PM,82.6,69.1,64,29.98,10.0,SSE,9.2,-,N/A,,Overcast,160,2012-10-12 22:55:00
6:55 PM,80.4,67.3,64,29.99,10.0,SSE,13.8,-,N/A,,Mostly Cloudy,160,2012-10-12 23:55:00
7:55 PM,77.7,66.4,68,30.00,10.0,SSE,9.2,-,N/A,,Mostly Cloudy,150,2012-10-13 00:55:00
8:55 PM,77.0,66.0,69,30.01,10.0,SSE,11.5,-,N/A,,Mostly Cloudy,150,2012-10-13 01:55:00
9:55 PM,75.7,65.1,69,30.00,10.0,SSE,13.8,-,N/A,,Partly Cloudy,150,2012-10-13 02:55:00
10:55 PM,74.1,65.1,73,30.00,10.0,SSE,13.8,-,N/A,,Partly Cloudy,160,2012-10-13 03:55:00
11:55 PM,72.5,65.1,78,29.99,10.0,SSE,13.8,-,N/A,,Clear,160,2012-10-13 04:55:00